Regional Weather Roundup
Issued by NWS

Home | Current Version | Previous Version | Graphics & Text | Print | Product List | Glossary On
Versions: 1 2 3 4 5 6 7 8 9 10 11 12 13 14 15 16 17 18 19 20 21 22 23 24 25 26 27 28 29 30 31 32 33 34 35 36 37 38 39 40 41 42 43 44 45 46 47 48 49 50
000
ASUS43 KLMK 010010
RWRKY
KENTUCKY REGIONAL WEATHER ROUNDUP
NATIONAL WEATHER SERVICE LOUISVILLE KY
700 PM EST SAT JAN 31 2015

NOTE "FAIR" INDICATES FEW OR NO CLOUDS BELOW 12,000 FEET
WITH NO SIGNIFICANT WEATHER AND/OR OBSTRUCTIONS TO VISIBILITY.

KYZ001>023-026-027-061>063-070>075-010100-
WESTERN AND SOUTH CENTRAL KENTUCKY

CITY           SKY/WX    TMP DP  RH WIND       PRES   REMARKS
PADUCAH        CLOUDY    41  25  53 E5        30.23F
HENDERSON      CLOUDY    39  25  56 CALM      30.28F
OWENSBORO      CLOUDY    40  27  60 SW6       30.29R
HOPKINSVILLE   CLOUDY    42  26  53 NE5       30.26S
BOWLING GREEN  CLOUDY    41  23  48 E7        30.26F
GLASGOW        CLOUDY    40  22  49 CALM      30.27S
$$

KYZ024-025-028>034-038-045-046-053-010100-
NORTH CENTRAL KENTUCKY

CITY           SKY/WX    TMP DP  RH WIND       PRES   REMARKS
LOUISVILLE/SDF CLOUDY    41  20  43 S3        30.29S
LOUISVILLE/LOU CLOUDY    40  20  44 CALM      30.30R
FORT KNOX      CLOUDY    37  24  60 NE1       30.27S
$$

KYZ035>037-039>044-047>052-055>060-089>105-010100-
NORTHEAST KENTUCKY

CITY           SKY/WX    TMP DP  RH WIND       PRES   REMARKS
LEXINGTON      CLOUDY    36  19  50 SW5       30.29F WCI  32
COVINGTON      CLOUDY    36  21  54 S5        30.27R WCI  32
FRANKFORT      CLOUDY    37  19  48 CALM      30.28F
$$

KYZ054-064>069-076>088-106>120-010100-
SOUTHEAST KENTUCKY

CITY           SKY/WX    TMP DP  RH WIND       PRES   REMARKS
JACKSON        CLOUDY    38  12  34 SW3       30.28S
LONDON         CLOUDY    40  12  32 CALM      30.28F
SOMERSET       CLOUDY    39  14  35 CALM      30.30S
MIDDLESBORO    CLOUDY    40  19  42 W3        30.30S
MONTICELLO     CLOUDY    37  22  55 CALM      30.32S
$$




USA.gov is the U.S. government's official web portal to all federal, state and local government web resources and services.